Gwinner, ND

3:37 PM CDT on May 28, 2017 (GMT -0500)
Gwinner-melroe

Weather History for KGWR - October, 2013

Change the Weather History Date:

Tuesday, October 15, 2013

  Actual Average (KP67) Record (KP67)
Temperature  
Mean Temperature 40 °F -  
Max Temperature 44 °F 59 °F 71 °F (1996)
Min Temperature 35 °F 35 °F 36 °F (1997)
Degree Days  
Heating Degree Days 26    
Moisture  
Dew Point 42 °F    
Average Humidity 96    
Maximum Humidity 100    
Minimum Humidity 81    
Precipitation  
Precipitation 0.16 in - - ()
Sea Level Pressure  
Sea Level Pressure 29.97 in    
Wind  
Wind Speed 22 mph (North)    
Max Wind Speed 28 mph    
Max Gust Speed 36 mph    
Visibility 7 miles    
Events      
Averages and records for this station are not official NWS values.
T = Trace of Precipitation, MM = Missing Value Source: NWS Daily Summary

Daily Weather History Graph

Daily Weather History Graph

Search for Another Location

Airport or City:

Trip Planner

Search our weather history database for the weather conditions in past years. The results will help you decide how hot, cold, wet, or windy it might be!

Date:

Astronomy

Oct. 15, 2013 Rise Set
Actual Time 7:48 AM CDT 6:43 PM CDT
Civil Twilight 7:17 AM CDT 7:13 PM CDT
Nautical Twilight 6:42 AM CDT 7:48 PM CDT
Astronomical Twilight 6:08 AM CDT 8:23 PM CDT
Moon 4:58 PM CDT (10/15) 4:01 AM CDT (10/15)
Length of Visible Light 11h 56m
Length of Day
10h 55m
Waxing Gibbous, 88% of the Moon is Illuminated
Oct 15
Waxing Gibbous
Oct 18
Full
Oct 26
Last Quarter
Nov 3
New
Nov 9
First Quarter

Hourly Weather History & Observations

Time (CDT) Temp. Windchill Dew Point Humidity Pressure Visibility Wind Dir Wind Speed Gust Speed Precip Events Conditions
12:15 AM 42.8 °F 33.3 °F 42.8 °F 100% 29.93 in 3.0 mi NE 24.2 mph 29.9 mph 0.01 in   Overcast
12:35 AM 42.8 °F 33.8 °F 42.8 °F 100% 29.92 in 4.0 mi NE 21.9 mph 29.9 mph 0.02 in   Overcast
12:55 AM 42.8 °F 33.3 °F 42.8 °F 100% 29.91 in 5.0 mi NE 24.2 mph 32.2 mph 0.03 in   Overcast
1:15 AM 42.8 °F 33.3 °F 42.8 °F 100% 29.90 in 5.0 mi NE 24.2 mph 29.9 mph 0.01 in   Overcast
1:35 AM 42.8 °F 33.1 °F 42.8 °F 100% 29.90 in 5.0 mi NE 25.3 mph 31.1 mph 0.02 in   Overcast
1:55 AM 42.8 °F 33.3 °F 42.8 °F 100% 29.89 in 5.0 mi NE 24.2 mph 33.4 mph 0.03 in   Overcast
2:15 AM 42.8 °F 33.5 °F 42.8 °F 100% 29.89 in 4.0 mi NE 23.0 mph 26.5 mph 0.01 in   Overcast
2:35 AM 44.6 °F 36.1 °F 44.6 °F 100% 29.88 in 5.0 mi NE 21.9 mph 32.2 mph 0.01 in   Overcast
2:55 AM 44.6 °F 35.9 °F 44.6 °F 100% 29.88 in 4.0 mi NE 23.0 mph 28.8 mph 0.02 in   Overcast
3:15 AM 44.6 °F 36.6 °F 44.6 °F 100% 29.88 in 5.0 mi NNE 19.6 mph 29.9 mph 0.01 in   Overcast
3:35 AM 44.6 °F 35.9 °F 44.6 °F 100% 29.87 in 6.0 mi NE 23.0 mph 28.8 mph 0.01 in   Overcast
3:55 AM 44.6 °F 36.1 °F 44.6 °F 100% 29.87 in 5.0 mi NNE 21.9 mph 29.9 mph 0.01 in   Overcast
4:15 AM 44.6 °F 35.9 °F 44.6 °F 100% 29.87 in 6.0 mi NNE 23.0 mph 29.9 mph 0.00 in   Overcast
4:35 AM 44.6 °F 35.7 °F 44.6 °F 100% 29.87 in 7.0 mi NNE 24.2 mph 28.8 mph 0.01 in   Overcast
4:55 AM 44.6 °F 35.9 °F 44.6 °F 100% 29.86 in 7.0 mi NNE 23.0 mph 29.9 mph 0.01 in   Overcast
5:15 AM 44.6 °F 35.7 °F 44.6 °F 100% 29.87 in 6.0 mi NNE 24.2 mph 31.1 mph 0.00 in   Overcast
5:35 AM 44.6 °F 35.5 °F 44.6 °F 100% 29.87 in 5.0 mi NNE 25.3 mph 29.9 mph 0.00 in   Overcast
5:55 AM 44.6 °F 35.7 °F 44.6 °F 100% 29.88 in 5.0 mi NNE 24.2 mph 29.9 mph 0.02 in   Overcast
6:15 AM 44.6 °F 35.7 °F 44.6 °F 100% 29.88 in 6.0 mi NNE 24.2 mph 31.1 mph 0.01 in   Overcast
6:35 AM 44.6 °F 35.9 °F 44.6 °F 100% 29.89 in 5.0 mi NNE 23.0 mph 28.8 mph 0.03 in   Overcast
6:55 AM 44.6 °F 36.4 °F 44.6 °F 100% 29.89 in 7.0 mi NNE 20.7 mph 27.6 mph 0.04 in   Overcast
7:15 AM 44.6 °F 35.5 °F 44.6 °F 100% 29.90 in 7.0 mi NNE 25.3 mph 29.9 mph 0.00 in   Overcast
7:35 AM 42.8 °F 33.3 °F 42.8 °F 100% 29.90 in 4.0 mi North 24.2 mph 32.2 mph 0.00 in   Overcast
7:55 AM 42.8 °F 33.5 °F 42.8 °F 100% 29.91 in 7.0 mi North 23.0 mph 29.9 mph 0.00 in   Overcast
8:15 AM 42.8 °F 33.5 °F 42.8 °F 100% 29.92 in 4.0 mi North 23.0 mph 28.8 mph 0.00 in   Overcast
8:35 AM 42.8 °F 32.9 °F 42.8 °F 100% 29.92 in 9.0 mi North 26.5 mph 33.4 mph 0.00 in   Overcast
8:55 AM 42.8 °F 33.3 °F 42.8 °F 100% 29.93 in 7.0 mi North 24.2 mph 31.1 mph 0.00 in   Overcast
9:15 AM 42.8 °F 33.3 °F 42.8 °F 100% 29.94 in 2.5 mi North 24.2 mph 31.1 mph 0.00 in   Overcast
9:35 AM 42.8 °F 33.5 °F 42.8 °F 100% 29.95 in 2.5 mi North 23.0 mph 32.2 mph 0.00 in   Overcast
9:55 AM 42.8 °F 33.3 °F 42.8 °F 100% 29.95 in 2.5 mi North 24.2 mph 31.1 mph 0.00 in   Overcast
10:15 AM 42.8 °F 32.7 °F 42.8 °F 100% 29.96 in 3.0 mi North 27.6 mph 34.5 mph 0.00 in   Overcast
10:35 AM 42.8 °F 33.1 °F 42.8 °F 100% 29.97 in 9.0 mi North 25.3 mph 32.2 mph 0.00 in   Overcast
10:55 AM 42.8 °F 33.1 °F 42.8 °F 100% 29.97 in 10.0 mi North 25.3 mph 32.2 mph 0.00 in   Overcast
11:15 AM 42.8 °F 32.7 °F 42.8 °F 100% 29.98 in 6.0 mi North 27.6 mph 31.1 mph 0.00 in   Overcast
11:35 AM 42.8 °F 34.0 °F 42.8 °F 100% 29.98 in 4.0 mi North 20.7 mph 32.2 mph 0.00 in   Overcast
11:55 AM 42.8 °F 33.3 °F 42.8 °F 100% 29.98 in 5.0 mi North 24.2 mph 32.2 mph 0.00 in   Overcast
12:15 PM 42.8 °F 33.8 °F 42.8 °F 100% 29.99 in 6.0 mi North 21.9 mph 31.1 mph 0.00 in   Overcast
12:35 PM 42.8 °F 32.9 °F 42.8 °F 100% 30.00 in 9.0 mi North 26.5 mph 35.7 mph 0.00 in   Overcast
12:55 PM 42.8 °F 33.5 °F 42.8 °F 100% 30.00 in 10.0 mi North 23.0 mph 31.1 mph 0.00 in   Overcast
1:15 PM 42.8 °F 33.3 °F 42.8 °F 100% 29.99 in 10.0 mi North 24.2 mph 29.9 mph 0.00 in   Overcast
1:35 PM 42.8 °F 33.3 °F 42.8 °F 100% 29.99 in 7.0 mi North 24.2 mph 33.4 mph 0.00 in   Overcast
1:55 PM 42.8 °F 33.5 °F 42.8 °F 100% 29.99 in 5.0 mi North 23.0 mph 32.2 mph 0.00 in   Overcast
2:15 PM 42.8 °F 33.5 °F 42.8 °F 100% 30.00 in 7.0 mi North 23.0 mph 28.8 mph 0.00 in   Overcast
2:35 PM 42.8 °F 33.1 °F 42.8 °F 100% 30.00 in 6.0 mi North 25.3 mph 31.1 mph 0.00 in   Overcast
2:55 PM 42.8 °F 33.1 °F 42.8 °F 100% 30.01 in 5.0 mi North 25.3 mph 32.2 mph 0.00 in   Overcast
3:15 PM 42.8 °F 34.0 °F 42.8 °F 100% 30.00 in 4.0 mi North 20.7 mph 27.6 mph 0.00 in   Overcast
3:35 PM 44.6 °F 36.6 °F 42.8 °F 93% 30.00 in 9.0 mi North 19.6 mph 25.3 mph 0.00 in   Overcast
3:55 PM 44.6 °F 36.4 °F 42.8 °F 93% 30.00 in 10.0 mi North 20.7 mph 26.5 mph 0.00 in   Overcast
4:15 PM 44.6 °F 36.6 °F 42.8 °F 93% 30.00 in 8.0 mi North 19.6 mph 26.5 mph 0.00 in   Overcast
4:35 PM 44.6 °F 36.4 °F 41.0 °F 87% 30.01 in 10.0 mi North 20.7 mph 26.5 mph 0.00 in   Overcast
4:55 PM 44.6 °F 36.9 °F 41.0 °F 87% 30.01 in 10.0 mi North 18.4 mph 27.6 mph 0.00 in   Overcast
5:15 PM 44.6 °F 37.4 °F 41.0 °F 87% 30.01 in 10.0 mi North 16.1 mph - 0.00 in   Overcast
5:35 PM 44.6 °F 38.1 °F 41.0 °F 87% 30.01 in 10.0 mi North 13.8 mph 20.7 mph 0.00 in   Mostly Cloudy
5:55 PM 44.6 °F 37.8 °F 39.2 °F 81% 30.02 in 10.0 mi North 15.0 mph 23.0 mph 0.00 in   Overcast
6:15 PM 44.6 °F 38.1 °F 39.2 °F 81% 30.02 in 10.0 mi North 13.8 mph 23.0 mph 0.00 in   Mostly Cloudy
6:35 PM 44.6 °F 38.8 °F 39.2 °F 81% 30.03 in 10.0 mi North 11.5 mph - 0.00 in   Mostly Cloudy
6:55 PM 42.8 °F 37.0 °F 39.2 °F 87% 30.03 in 10.0 mi NNW 10.4 mph - 0.00 in   Mostly Cloudy
7:15 PM 42.8 °F 37.5 °F 39.2 °F 87% 30.04 in 10.0 mi NNW 9.2 mph - 0.00 in   Mostly Cloudy
7:55 PM 41.0 °F 35.2 °F 39.2 °F 93% 30.05 in 10.0 mi NNW 9.2 mph - 0.00 in   Mostly Cloudy
8:15 PM 41.0 °F 34.7 °F 37.4 °F 87% 30.06 in 10.0 mi NNW 10.4 mph - 0.00 in   Scattered Clouds
8:35 PM 39.2 °F 32.5 °F 35.6 °F 87% 30.06 in 10.0 mi NNW 10.4 mph - 0.00 in   Clear
8:55 PM 39.2 °F 31.2 °F 35.6 °F 87% 30.06 in 10.0 mi NNW 13.8 mph - 0.00 in   Clear
9:15 PM 39.2 °F 32.0 °F 35.6 °F 87% 30.06 in 10.0 mi NNW 11.5 mph - 0.00 in   Clear
9:35 PM 37.4 °F 30.3 °F 35.6 °F 93% 30.06 in 10.0 mi NNW 10.4 mph - 0.00 in   Clear
9:55 PM 37.4 °F 30.8 °F 35.6 °F 93% 30.06 in 10.0 mi NW 9.2 mph - 0.00 in   Clear
10:15 PM 37.4 °F 29.8 °F 35.6 °F 93% 30.07 in 10.0 mi NW 11.5 mph - 0.00 in   Clear
10:35 PM 37.4 °F 30.3 °F 35.6 °F 93% 30.07 in 10.0 mi NNW 10.4 mph - 0.00 in   Clear
10:55 PM 37.4 °F 30.8 °F 35.6 °F 93% 30.07 in 10.0 mi NNW 9.2 mph - 0.00 in   Clear
11:15 PM 35.6 °F 29.2 °F 33.8 °F 93% 30.07 in 10.0 mi NNW 8.1 mph - 0.00 in   Clear
11:35 PM 35.6 °F 29.2 °F 33.8 °F 93% 30.06 in 10.0 mi NNW 8.1 mph - 0.00 in   Clear
11:55 PM 35.6 °F 29.2 °F 33.8 °F 93% 30.06 in 10.0 mi NNW 8.1 mph - 0.00 in   Clear